Temp
-7 -7 -7 -6 -6 -6 -6 -5 -5 -5 -5 -5 -5 -5 -5 -5 -5 -5 -4 -4 -4 -4 -4 -4 -5 -5 -5 -4 -4 -4 -4 -4 -5 -5 -5 -5 -5 -5 -6 -6 -6 -6 -6
-7 -7 -7 -7 -6 -6 -6 -6 -6 -5 -5 -5 -5 -5 -5 -5 -5 -5 -4 -4 -4 -4 -4 -4 -5 -5 -5 -5 -5 -5 -5 -5 -5 -5 -5 -5 -5 -6 -6 -6 -6 -6 -6
-7 -8 -8 -7 -6 -6 -6 -6 -6 -6 -5 -5 -5 -5 -5 -5 -5 -5 -4 -4 -4 -4 -4 -4 -5 -5 -5 -5 -5 -5 -5 -5 -5 -5 -5 -6 -6 -6 -6 -6 -6 -7 -7
-7 -9 -9 -8 -7 -7 -6 -6 -6 -6 -6 -5 -5 -5 -5 -5 -5 -5 -5 -4 -4 -4 -4 -5 -5 -5 -5 -5 -5 -5 -5 -5 -5 -5 -5 -6 -6 -6 -6 -6 -7 -7 -7
-8 -9 -9 -9 -8 -7 -7 -6 -6 -6 -6 -6 -5 -5 -5 -5 -5 -5 -5 -5 -5 -5 -5 -5 -5 -5 -5 -5 -5 -5 -5 -5 -5 -6 -6 -6 -6 -6 -6 -7 -7 -7 -7
-8 -9 -10 -9 -8 -8 -7 -7 -7 -7 -6 -6 -6 -5 -5 -5 -5 -5 -5 -5 -5 -5 -5 -5 -5 -5 -5 -5 -5 -6 -6 -6 -6 -6 -6 -6 -6 -6 -7 -7 -7 -7 -7
-10 -9 -10 -10 -9 -8 -8 -7 -7 -7 -7 -7 -6 -6 -5 -5 -5 -5 -5 -5 -5 -5 -5 -5 -5 -5 -6 -6 -6 -6 -6 -6 -6 -6 -6 -6 -6 -7 -7 -7 -7 -8 -8
-10 -10 -10 -10 -9 -8 -8 -8 -7 -7 -7 -7 -7 -6 -6 -5 -6 -6 -6 -5 -5 -5 -5 -5 -5 -6 -6 -6 -6 -6 -6 -6 -6 -7 -7 -7 -7 -7 -7 -8 -8 -8 -8
-10 -10 -10 -10 -9 -9 -8 -8 -8 -7 -7 -7 -7 -7 -6 -6 -6 -6 -6 -6 -5 -6 -6 -6 -6 -6 -6 -6 -6 -6 -6 -7 -7 -7 -7 -7 -7 -7 -8 -8 -8 -8 -8
-10 -11 -10 -9 -9 -9 -8 -8 -8 -8 -7 -7 -7 -7 -6 -6 -6 -6 -6 -6 -6 -6 -6 -6 -6 -6 -6 -6 -6 -6 -6 -7 -7 -7 -7 -7 -7 -8 -8 -8 -8 -8 -8
-10 -10 -9 -9 -9 -9 -9 -8 -9 -9 -8 -8 -7 -7 -7 -6 -6 -6 -6 -6 -6 -6 -6 -6 -6 -6 -6 -6 -6 -7 -7 -7 -7 -7 -8 -8 -8 -8 -8 -8 -8 -9 -9
-11 -10 -10 -9 -10 -9 -10 -10 -9 -9 -8 -8 -8 -7 -7 -7 -6 -7 -7 -7 -6 -6 -6 -6 -7 -7 -7 -7 -7 -7 -7 -7 -7 -8 -8 -8 -8 -8 -8 -8 -9 -9 -9
-11 -9 -10 -10 -10 -9 -10 -9 -10 -9 -9 -9 -8 -8 -7 -7 -6 -7 -7 -7 -7 -7 -7 -7 -7 -7 -7 -7 -7 -7 -7 -7 -8 -8 -8 -8 -8 -8 -8 -9 -9 -9 -9
-10 -10 -10 -11 -10 -10 -8 -8 -9 -9 -9 -9 -9 -8 -8 -7 -7 -7 -7 -7 -7 -7 -7 -7 -7 -7 -7 -7 -7 -7 -7 -8 -8 -8 -8 -8 -9 -9 -9 -9 -9 -9 -9
-11 -11 -12 -10 -10 -10 -9 -9 -9 -10 -10 -9 -9 -9 -8 -8 -8 -8 -8 -8 -7 -7 -7 -7 -8 -8 -8 -8 -8 -8 -8 -8 -8 -9 -9 -9 -9 -9 -9 -9 -9 -9 -9
-13 -12 -11 -11 -11 -10 -10 -10 -9 -10 -10 -10 -10 -10 -9 -9 -8 -8 -8 -8 -8 -8 -8 -8 -8 -8 -8 -8 -8 -8 -8 -8 -8 -9 -9 -9 -9 -9 -9 -9 -10 -10 -10
-13 -13 -12 -12 -12 -10 -10 -10 -10 -10 -10 -10 -10 -10 -9 -9 -9 -9 -8 -8 -8 -8 -8 -8 -8 -8 -8 -8 -8 -8 -8 -9 -9 -9 -9 -9 -9 -10 -9 -10 -10 -10 -10
-14 -14 -14 -13 -12 -13 -10 -11 -11 -11 -10 -10 -10 -10 -10 -9 -9 -9 -9 -9 -8 -8 -8 -8 -8 -8 -8 -9 -9 -9 -9 -9 -9 -9 -9 -10 -10 -10 -10 -10 -10 -10 -10
-15 -13 -13 -13 -12 -12 -11 -11 -11 -11 -11 -10 -10 -10 -10 -10 -9 -9 -9 -9 -9 -9 -9 -9 -9 -9 -9 -9 -10 -9 -9 -9 -9 -10 -10 -10 -10 -10 -10 -10 -11 -10 -10
-15 -13 -14 -13 -13 -12 -12 -12 -11 -11 -11 -10 -10 -10 -10 -10 -10 -10 -10 -9 -9 -9 -9 -10 -10 -9 -10 -10 -10 -10 -10 -10 -10 -10 -10 -10 -10 -10 -10 -10 -11 -11 -11
-15 -14 -14 -14 -13 -13 -13 -12 -11 -12 -11 -10 -10 -10 -10 -10 -10 -11 -11 -10 -10 -10 -10 -10 -12 -12 -11 -10 -11 -10 -10 -10 -10 -10 -10 -10 -10 -10 -10 -11 -10 -11 -11
-16 -14 -14 -13 -13 -12 -12 -12 -12 -11 -11 -11 -10 -10 -10 -10 -10 -10 -10 -12 -11 -11 -12 -13 -13 -13 -11 -11 -12 -12 -12 -12 -12 -11 -11 -11 -11 -11 -11 -11 -11 -11 -11
-15 -14 -14 -13 -13 -13 -13 -12 -12 -11 -11 -11 -11 -10 -11 -10 -10 -10 -10 -11 -10 -12 -12 -14 -13 -13 -12 -12 -12 -12 -12 -12 -12 -12 -12 -12 -11 -11 -11 -11 -11 -12 -12
-16 -15 -15 -14 -13 -13 -13 -12 -12 -11 -11 -11 -11 -11 -11 -11 -11 -11 -11 -11 -11 -11 -11 -12 -12 -12 -12 -11 -12 -12 -12 -12 -11 -11 -12 -12 -11 -11 -12 -12 -12 -12 -12
-16 -15 -15 -14 -13 -12 -13 -12 -12 -11 -12 -11 -11 -11 -11 -11 -11 -12 -10 -10 -11 -12 -12 -12 -12 -12 -12 -12 -12 -12 -11 -12 -12 -11 -12 -12 -12 -12 -12 -12 -12 -12 -13
-15 -15 -15 -13 -13 -12 -12 -12 -12 -12 -12 -11 -12 -12 -12 -12 -12 -12 -12 -11 -11 -12 -11 -12 -12 -11 -11 -12 -12 -11 -12 -12 -12 -12 -12 -12 -12 -12 -12 -12 -12 -12 -13
Height
5856 5857 5862 5864 5867 5869 5871 5872 5874 5876 5877 5878 5879 5880 5881 5881 5882 5883 5883 5883 5884 5883 5883 5883 5883 5883 5883 5883 5882 5882 5882 5883 5883 5884 5884 5884 5884 5884 5884 5883 5882 5882 5881
5848 5851 5855 5859 5862 5865 5868 5869 5871 5872 5875 5875 5876 5878 5878 5880 5880 5881 5881 5882 5882 5882 5882 5882 5882 5882 5882 5882 5882 5882 5882 5882 5882 5883 5883 5883 5883 5883 5883 5882 5882 5881 5880
5841 5844 5848 5852 5856 5860 5863 5866 5867 5869 5871 5873 5874 5875 5876 5877 5879 5879 5880 5880 5880 5880 5880 5880 5881 5881 5882 5881 5881 5881 5881 5881 5881 5882 5882 5882 5882 5882 5881 5881 5881 5880 5879
5834 5836 5841 5845 5850 5854 5858 5860 5863 5865 5867 5869 5870 5872 5873 5875 5876 5878 5878 5879 5879 5879 5879 5880 5880 5880 5880 5880 5880 5880 5880 5881 5881 5881 5881 5881 5881 5881 5881 5880 5880 5879 5878
5822 5829 5835 5838 5843 5847 5852 5855 5858 5860 5863 5865 5867 5868 5870 5872 5874 5876 5876 5877 5877 5878 5878 5878 5878 5878 5878 5878 5879 5879 5879 5879 5880 5880 5880 5880 5880 5880 5880 5880 5879 5878 5877
5816 5822 5828 5832 5836 5840 5846 5850 5853 5856 5858 5860 5862 5864 5866 5867 5870 5872 5874 5875 5875 5876 5877 5877 5877 5877 5877 5877 5877 5877 5878 5878 5878 5878 5879 5879 5879 5879 5879 5879 5878 5877 5876
5807 5813 5821 5825 5829 5832 5838 5843 5846 5850 5853 5856 5858 5859 5860 5863 5865 5868 5870 5872 5873 5873 5874 5875 5876 5876 5875 5875 5875 5876 5876 5877 5877 5877 5877 5877 5877 5878 5878 5877 5877 5876 5875
5800 5805 5811 5816 5822 5826 5829 5834 5840 5844 5847 5850 5852 5854 5856 5859 5862 5864 5867 5868 5870 5870 5871 5872 5873 5874 5875 5874 5874 5874 5875 5876 5876 5876 5875 5876 5876 5876 5875 5875 5874 5874 5873
5788 5795 5804 5809 5814 5821 5823 5827 5832 5837 5841 5845 5848 5850 5851 5855 5858 5860 5863 5865 5866 5867 5867 5868 5870 5871 5872 5873 5873 5873 5873 5873 5874 5874 5874 5874 5874 5874 5873 5873 5872 5871 5870
5781 5787 5798 5799 5803 5811 5817 5822 5826 5831 5835 5838 5842 5844 5846 5850 5854 5856 5858 5861 5863 5864 5865 5865 5866 5867 5868 5870 5871 5871 5871 5871 5872 5872 5872 5873 5872 5872 5871 5870 5869 5869 5867
5773 5779 5788 5788 5791 5801 5811 5814 5820 5824 5829 5832 5836 5838 5841 5844 5848 5850 5853 5855 5858 5860 5861 5862 5863 5864 5865 5866 5867 5868 5868 5868 5868 5869 5869 5869 5869 5869 5868 5868 5867 5866 5865
5766 5771 5774 5779 5772 5788 5799 5805 5811 5816 5822 5825 5829 5832 5834 5838 5842 5846 5848 5850 5852 5855 5857 5858 5859 5860 5861 5862 5863 5864 5865 5865 5865 5866 5866 5866 5866 5866 5866 5865 5864 5864 5863
5757 5764 5767 5772 5775 5781 5790 5795 5800 5806 5813 5819 5822 5825 5827 5831 5836 5840 5842 5846 5847 5849 5851 5853 5855 5856 5857 5858 5859 5860 5861 5862 5862 5862 5862 5863 5863 5863 5862 5862 5861 5861 5859
5751 5757 5758 5761 5768 5770 5772 5780 5790 5795 5803 5810 5814 5818 5821 5827 5830 5832 5835 5839 5842 5843 5846 5848 5850 5852 5854 5854 5855 5856 5857 5858 5858 5859 5859 5859 5859 5859 5859 5858 5857 5856 5855
5743 5745 5746 5751 5758 5764 5767 5774 5776 5783 5791 5799 5805 5810 5814 5821 5823 5825 5830 5832 5836 5838 5840 5842 5844 5846 5849 5850 5851 5852 5852 5854 5854 5855 5855 5855 5855 5854 5854 5853 5853 5851 5850
5734 5737 5737 5744 5750 5752 5760 5772 5774 5769 5778 5788 5796 5801 5808 5814 5815 5819 5823 5827 5829 5832 5833 5837 5838 5841 5843 5845 5845 5848 5847 5848 5849 5849 5850 5849 5849 5849 5848 5848 5847 5846 5846
5722 5727 5730 5735 5742 5744 5752 5763 5766 5767 5771 5779 5786 5792 5800 5806 5809 5812 5816 5820 5822 5825 5826 5830 5832 5834 5835 5839 5839 5842 5842 5843 5843 5843 5844 5843 5843 5843 5842 5842 5842 5841 5840
5712 5720 5725 5731 5736 5740 5747 5751 5756 5763 5769 5770 5776 5784 5791 5797 5802 5805 5809 5812 5814 5817 5819 5822 5824 5827 5828 5830 5833 5834 5835 5836 5836 5837 5837 5837 5837 5836 5836 5835 5835 5835 5833
5706 5714 5720 5724 5730 5734 5739 5745 5751 5758 5763 5768 5770 5775 5781 5788 5793 5797 5801 5804 5806 5809 5811 5814 5816 5819 5820 5822 5825 5826 5828 5829 5830 5830 5830 5830 5830 5830 5829 5828 5827 5827 5827
5698 5707 5713 5720 5723 5727 5728 5736 5744 5748 5756 5762 5766 5768 5772 5778 5782 5787 5792 5795 5798 5801 5803 5805 5807 5811 5813 5813 5816 5819 5822 5822 5822 5822 5822 5822 5822 5823 5822 5821 5820 5819 5818
5690 5700 5711 5716 5721 5723 5724 5729 5738 5744 5750 5754 5760 5762 5765 5769 5771 5775 5781 5785 5789 5792 5794 5796 5798 5803 5805 5805 5808 5811 5813 5815 5814 5815 5815 5814 5815 5815 5814 5813 5811 5810 5811
5686 5698 5705 5711 5716 5719 5721 5726 5733 5740 5744 5750 5752 5755 5758 5761 5761 5765 5770 5776 5779 5783 5785 5788 5790 5795 5799 5799 5800 5802 5805 5805 5806 5806 5805 5806 5806 5806 5805 5805 5804 5803 5803
5685 5691 5696 5704 5710 5713 5715 5720 5725 5730 5738 5744 5745 5746 5749 5752 5753 5757 5761 5764 5768 5773 5776 5780 5783 5788 5791 5792 5791 5794 5794 5795 5794 5797 5796 5797 5796 5796 5797 5797 5796 5794 5794
5678 5685 5688 5697 5705 5709 5711 5716 5720 5725 5731 5735 5739 5739 5740 5743 5748 5749 5753 5758 5761 5765 5767 5771 5776 5778 5780 5783 5784 5784 5784 5784 5784 5786 5789 5787 5787 5787 5787 5787 5786 5785 5783
5673 5679 5687 5692 5695 5704 5709 5712 5716 5722 5720 5726 5731 5732 5733 5733 5739 5741 5744 5749 5755 5758 5760 5764 5766 5770 5772 5774 5775 5776 5777 5777 5776 5776 5779 5781 5779 5778 5778 5777 5776 5776 5774
5669 5674 5682 5686 5691 5698 5703 5707 5710 5712 5716 5720 5723 5726 5728 5729 5732 5736 5739 5742 5747 5751 5753 5755 5757 5762 5765 5766 5766 5767 5768 5768 5767 5768 5768 5769 5770 5768 5768 5767 5767 5766 5766
Wind_Speed
40 39 36 35 31 29 27 25 23 20 19 18 17 14 13 12 13 13 12 10 7 5 5 5 5 4 5 4 4 3 2 3 4 5 4 3 4 5 6 8 9 11 14
42 42 40 38 36 31 30 27 25 23 21 20 20 17 15 14 15 14 14 11 9 7 7 6 6 5 6 5 5 5 4 3 4 4 4 4 5 5 6 7 8 11 13
45 44 41 40 39 35 32 31 28 26 24 23 22 20 17 16 16 15 15 13 11 9 8 7 6 6 6 6 6 5 5 4 3 4 4 5 6 5 6 7 8 11 13
42 44 42 43 40 38 35 32 30 29 27 26 25 23 20 18 18 17 16 15 13 12 10 8 7 6 6 6 6 5 4 4 4 4 5 5 6 6 6 6 8 11 12
42 48 44 44 43 40 37 35 33 31 30 29 28 26 22 20 20 19 18 16 15 13 12 10 8 8 7 6 6 6 5 5 5 5 5 5 6 6 6 7 9 11 12
53 44 46 46 45 42 40 38 36 34 33 32 31 29 26 22 21 21 20 18 17 15 14 12 10 9 8 8 7 7 7 7 6 6 6 6 6 7 7 8 9 11 12
48 47 46 49 50 45 43 41 38 37 35 34 33 32 29 25 23 22 22 20 19 17 16 14 13 12 10 9 9 9 8 8 8 7 7 7 7 7 7 8 10 11 12
58 54 49 50 54 49 47 43 42 40 38 37 36 34 33 29 25 24 24 22 21 19 18 16 14 13 13 11 10 9 9 9 9 9 8 8 8 8 8 9 10 11 12
53 56 54 49 53 53 49 47 44 43 41 39 38 36 36 31 25 25 25 24 23 22 20 18 17 15 14 14 13 11 10 10 10 10 10 9 9 9 9 10 11 12 13
52 58 50 40 58 56 54 49 45 44 43 41 40 39 38 34 27 26 26 25 25 24 22 21 19 18 16 16 15 14 12 11 11 11 11 11 11 10 11 12 13 14 14
51 58 59 38 52 53 56 53 49 47 45 44 43 42 42 36 32 28 28 27 27 26 24 23 22 20 19 18 17 16 15 13 12 13 12 12 13 13 14 15 15 16 17
51 64 69 54 29 50 57 54 53 51 49 47 45 45 45 40 36 31 30 30 29 27 27 26 24 22 21 20 19 18 17 15 14 14 14 15 15 15 17 17 18 18 19
47 68 73 59 53 45 53 61 57 55 53 50 48 48 47 43 38 34 34 33 32 30 29 28 27 25 24 22 21 19 19 18 17 17 16 17 17 18 19 20 20 21 21
53 65 78 71 44 25 51 50 59 54 57 53 52 50 50 45 41 39 38 36 34 32 31 30 29 27 26 24 23 22 21 21 20 19 18 19 19 21 22 23 23 23 23
47 63 70 73 58 48 46 37 46 53 63 57 53 53 52 47 44 43 40 37 35 33 33 32 31 29 28 26 25 24 24 24 23 22 22 22 22 24 25 25 26 26 25
54 60 78 78 66 57 48 32 37 44 60 57 54 54 52 48 48 44 41 39 37 36 34 34 33 31 29 29 26 31 29 28 26 25 25 25 26 27 27 28 28 29 29
58 53 67 77 72 59 47 38 32 40 40 55 56 51 53 51 49 46 44 42 40 40 37 37 36 34 32 31 28 36 32 31 29 28 28 29 31 30 30 31 31 32 31
55 52 56 58 72 71 58 41 24 29 38 37 49 56 53 54 52 49 46 45 44 43 40 40 40 39 36 32 35 39 35 34 33 31 32 32 34 34 33 34 33 35 35
55 45 36 36 59 73 70 61 52 36 25 49 38 45 58 54 53 51 49 48 47 45 44 44 43 42 40 34 38 40 38 37 36 35 35 36 36 36 36 37 37 37 38
55 51 33 25 32 46 70 72 41 37 35 42 51 36 37 55 53 54 52 52 51 49 49 48 45 44 42 46 43 40 38 40 40 39 39 39 39 39 40 39 39 41 40
56 59 48 29 28 30 38 55 48 53 41 39 60 52 41 35 53 58 57 56 54 54 53 47 50 47 46 47 41 38 40 40 43 41 40 42 41 42 42 42 43 42 41
42 50 38 30 31 20 18 34 49 35 40 35 38 58 51 39 51 57 59 56 57 56 51 53 53 47 47 51 37 41 40 42 44 41 43 42 42 44 45 45 46 44 43
46 50 42 33 28 18 18 23 30 29 35 33 36 43 36 62 59 59 54 55 53 57 57 47 53 47 51 53 41 41 44 44 45 44 43 41 46 46 44 47 45 44 43
47 54 39 28 24 24 25 21 29 28 44 43 32 38 33 45 56 57 48 48 55 54 55 53 43 46 49 43 37 37 39 34 36 37 34 37 38 39 42 45 47 45 45
44 45 53 34 24 26 30 24 24 35 38 42 43 49 35 30 52 37 39 42 40 33 46 47 47 39 38 40 40 36 40 46 47 40 39 40 40 40 35 39 43 40 40
38 43 49 37 36 38 41 25 27 32 39 39 49 48 48 43 38 49 59 58 50 44 47 49 49 44 49 41 40 38 39 45 43 42 40 38 43 42 43 41 42 41 40
Wind_Direction
228 238 239 242 244 243 240 239 239 239 239 245 248 250 253 256 258 257 254 252 260 261 260 265 273 280 286 293 296 305 306 275 243 235 246 272 304 325 344 356 1 6 5
231 231 237 238 242 242 243 240 240 238 240 241 246 249 250 254 256 254 252 249 248 245 252 263 269 277 279 285 292 297 296 286 262 245 255 277 297 315 334 346 355 0 360
229 233 233 236 237 240 243 241 238 238 237 241 242 246 248 249 253 252 249 248 246 242 244 254 267 282 284 285 288 291 292 284 270 257 263 281 294 308 325 339 350 354 356
242 229 231 234 233 235 237 240 236 237 238 238 240 242 244 245 248 250 247 243 239 239 242 249 259 270 274 274 279 282 280 280 276 274 280 285 294 307 318 330 343 350 351
238 229 232 231 232 231 234 235 236 234 236 238 240 241 241 243 244 250 248 243 240 241 243 243 249 258 265 267 273 275 275 272 274 279 278 279 289 300 308 327 342 344 344
238 225 231 231 229 229 232 235 234 235 234 235 239 241 240 240 242 246 247 244 240 241 246 247 249 250 253 259 261 263 267 272 275 277 277 284 293 299 309 321 331 337 341
234 228 229 231 230 226 227 232 233 232 234 235 236 239 238 236 238 242 244 241 239 240 242 246 252 256 253 255 260 265 271 273 271 269 273 280 282 291 303 315 325 329 330
235 231 227 231 232 227 226 227 231 231 232 234 235 237 240 236 236 240 243 241 240 239 241 242 248 257 263 263 263 267 276 277 273 270 270 276 282 286 294 303 312 316 318
236 228 224 230 233 230 227 226 227 230 230 234 235 236 240 238 234 240 243 243 242 240 240 242 246 250 258 266 269 270 271 273 273 273 273 274 274 278 288 296 302 307 313
235 224 221 232 227 231 228 228 227 230 230 232 234 236 238 240 234 238 241 242 244 243 244 244 246 250 254 260 268 272 272 272 271 272 273 274 274 277 285 290 295 301 305
236 218 216 224 229 228 230 229 229 229 230 231 234 235 238 237 237 233 240 241 243 245 247 248 248 249 252 258 263 268 269 269 268 267 267 268 271 275 282 288 293 297 299
235 217 219 220 227 227 226 229 228 230 229 229 231 233 238 237 236 235 238 242 243 246 249 251 250 250 253 255 260 264 265 267 265 264 263 266 269 275 281 285 290 293 296
236 221 219 218 220 218 228 229 230 228 230 230 230 232 235 238 236 236 239 241 242 243 246 250 251 252 252 255 255 259 263 264 265 264 263 268 273 278 280 283 287 289 291
246 224 224 225 221 203 201 206 228 228 228 228 229 231 234 234 235 235 237 240 243 243 245 248 249 252 255 254 254 257 262 264 265 265 266 269 273 277 279 283 285 285 287
240 225 226 225 220 221 202 208 213 223 226 226 226 229 232 233 234 235 236 238 243 245 246 247 248 250 252 253 255 260 261 263 265 266 267 268 271 274 278 281 283 284 283
237 232 226 227 226 217 203 207 204 223 218 222 225 228 231 229 232 235 237 239 240 244 245 247 247 248 250 251 253 264 259 261 262 264 266 268 268 272 276 278 281 284 287
228 229 230 231 231 221 223 216 210 216 208 223 223 227 229 231 233 234 237 239 241 243 244 246 247 245 246 249 261 262 258 259 261 262 263 266 267 269 273 277 280 281 283
226 229 236 242 235 233 214 221 221 227 220 210 223 225 228 232 235 236 237 238 240 242 243 244 246 246 244 245 260 260 260 261 261 261 263 263 267 270 272 273 276 278 280
221 217 216 245 245 238 230 227 221 232 245 218 215 224 226 230 235 237 238 239 240 241 243 244 244 245 241 252 260 256 260 262 263 264 264 265 266 268 269 272 275 277 279
220 213 208 232 246 254 246 243 227 232 243 234 219 218 227 229 232 235 238 240 242 242 243 242 242 246 243 250 257 256 262 265 265 266 267 268 267 268 270 271 272 275 275
217 218 223 227 233 243 245 246 229 246 257 244 232 221 218 225 234 233 235 239 241 243 242 243 245 246 245 252 253 257 261 267 270 269 272 271 272 271 270 271 272 272 276
217 214 220 223 228 219 232 252 246 252 257 240 237 230 221 223 230 233 233 237 243 244 241 246 253 248 248 261 251 259 262 263 266 270 271 273 274 273 272 272 276 278 279
210 211 212 206 210 224 224 226 227 235 221 234 251 250 244 229 230 234 235 235 241 243 251 242 254 249 253 264 257 262 261 266 267 267 267 270 270 271 272 275 277 279 281
218 211 225 234 209 225 243 238 213 225 220 227 230 247 254 250 246 241 244 246 253 251 255 251 251 253 258 258 258 264 262 264 260 263 267 269 276 279 275 274 275 276 279
218 220 228 220 230 223 245 221 218 224 216 228 224 231 247 250 247 237 247 253 242 252 257 251 253 247 243 249 257 255 270 260 266 268 266 270 273 273 276 269 271 275 278
208 214 223 224 223 215 234 225 222 220 216 233 234 232 240 245 240 240 243 249 258 256 260 256 265 252 252 260 250 263 266 267 263 263 265 265 264 267 268 270 272 275 277